Location: Brusselsch Zeekanaal
(50.8667°N, 4.3667°E)
Time: 11:49:46
(UTC+00:00)

SMAP - Pass Details

Date: 08 November 2025
Orbit: 681 x 683 km, 98.1° (Epoch: 10 December)

Event Time Altitude Azimuth Distance (km) Brightness Sun altitude
Rises 05:50:48 0° 17° (NNE) 3,059 6.4 -9.1°
Reaches altitude 10° 05:53:06 10° 22° (NNE) 2,138 5.7 -8.7°
Maximum altitude 05:57:41 55° 100° (E) 819 3.9 -8.0°
Drops below altitude 10° 06:02:15 10° 179° (S) 2,121 5.9 -7.3°
Sets 06:04:31 0° 184° (S) 3,031 6.6 -7.0°
